Location: Bethlehem Heights
(42.5342°N, 73.8326°W)
Time: 13:51:49
(UTC+00:00)

Daily predictions for brighter satellites

Satellite Brightness Start Highest point End
(mag) Time Altitude Azimuth Time Altitude Azimuth Time Altitude Azimuth
Cosmos 1939 Rocket 3.3 21:45:28 10° SE 21:49:19 41° ENE 21:53:09 10° N
Meteor 1-31 Rocket 4.4 21:45:50 10° SSW 21:49:24 39° W 21:53:00 10° NNW
Cosmos 841 Rocket 3.6 21:49:42 10° S 21:54:44 57° ESE 21:59:47 10° NNE
Meteor 1-25 Rocket 4.2 21:50:01 10° N 21:55:37 72° E 22:01:13 10° SSE
Cosmos 2278 4.4 21:50:49 10° N 21:55:57 33° NE 22:01:01 10° ESE
Cosmos 1500 3.8 21:52:43 10° NNE 21:56:07 32° ENE 21:59:29 10° SE
Cosmos 1833 Rocket 3.0 21:52:38 10° SSW 21:58:13 69° WNW 22:03:51 10° NNE
CZ-2C R/B 2.9 21:53:20 10° SSE 21:58:14 90° SSW 22:03:01 10° NNW
Cosmos 1634 Rocket 4.2 21:55:14 10° SSE 22:01:23 57° E 22:07:34 10° NNE
Cosmos 1782 3.0 21:57:49 10° S 22:01:41 51° E 22:05:34 10° NNE
USA 267 3.3 21:55:10 10° NE 22:01:44 87° NW 22:08:18 10° SW
H-2A R/B 2.8 21:57:49 10° SE 22:02:15 30° ENE 22:06:35 10° N
CZ-2D R/B 4.2 21:59:48 10° SE 22:03:00 26° ENE 22:06:11 10° NNE
Cosmos 1937 Rocket 3.5 21:58:18 10° NNW 22:03:39 75° ENE 22:08:57 10° SSE
Cosmos 2026 Rocket 4.0 21:59:15 10° N 22:05:18 61° E 22:11:17 10° SSE
Cosmos 2221 4.5 22:01:59 10° SW 22:05:45 30° WNW 22:09:34 10° NNW
Cosmos 1500 Rocket 4.0 22:01:34 10° NNW 22:05:58 67° W 22:10:18 10° S
Cosmos 372 Rocket 4.1 22:02:39 10° N 22:07:46 52° ENE 22:12:53 10° SE
COSMOS 2406 3.5 22:02:44 10° SSW 22:08:29 75° WNW 22:14:14 10° NNE
Cosmos 2195 Rocket 4.5 22:03:16 10° N 22:09:28 78° E 22:15:41 10° SSE
Sich 1 3.0 22:06:00 10° N 22:10:15 60° E 22:14:31 10° SSE
CZ-2C R/B 3.5 22:09:40 10° NE 22:14:01 27° E 22:18:20 10° SSE
Cosmos 1340 Rocket 4.5 22:10:40 10° NNW 22:14:28 38° W 22:18:15 10° SSW
Cosmos 1809 Rocket 4.4 22:10:08 10° N 22:16:15 82° E 22:22:20 10° S
Cosmos 1805 Rocket 3.6 22:13:47 10° N 22:18:08 86° W 22:22:28 10° S
USA 229 4.5 22:13:21 10° NW 22:20:42 65° WSW 22:28:26 10° SSE
Meteor 2-21 Rocket 4.5 22:15:53 10° N 22:21:53 57° ENE 22:27:48 10° SSE
NOAA 6 4.0 22:18:44 10° SSE 22:23:52 87° ENE 22:29:02 10° NNW
Lacrosse 5 rocket 2.4 22:20:44 10° NNW 22:24:01 25° NNE 22:26:08 17° ENE
CZ-4B R/B 3.6 22:20:05 10° SE 22:25:00 37° ENE 22:29:51 10° N
Cosmos 1666 3.1 22:21:42 10° N 22:25:12 38° ENE 22:28:41 10° SSE
MOS 1-B Rocket 4.3 22:25:20 10° NNE 22:31:19 57° ESE 22:38:13 10° S
PAYLOAD B 4.2 22:26:31 10° SSE 22:32:02 62° ENE 22:37:33 10° N
SL-24 R/B - RUBIN 2 3.5 22:27:36 10° NW 22:32:06 89° WSW 22:36:24 10° SSE
Cosmos 540 Rocket 4.3 22:28:46 10° SW 22:33:42 49° WNW 22:38:39 10° N
USA 234 3.3 22:27:40 10° ESE 22:34:07 65° NE 22:40:35 10° NW
PSLV R/B 3.5 22:35:20 10° SSE 22:39:00 79° ENE 22:42:45 10° N
Cosmos 2360 Rocket 3.7 22:39:41 10° N 22:42:46 16° NE 22:42:46 16° NE
Cosmos 921 Rocket 3.3 22:42:14 10° S 22:46:12 43° ESE 22:48:25 23° NE
Cosmos 1812 3.0 22:46:21 10° SSW 22:50:10 70° W 22:54:02 10° N
SL-08 RB Rocket 4.3 22:49:00 10° SE 22:53:11 34° ENE 22:57:19 10° N
CZ-2C R/B 3.0 22:51:34 10° SW 22:55:00 23° SSE 22:56:54 17° SE
COSMO-SKYMED 1 2.5 22:51:33 13° NNE 22:55:22 62° E 22:59:39 10° S
USA 305 4.2 22:52:42 10° NW 22:56:10 24° NNE 22:56:39 23° NNE
Cosmos 1814 Rocket 4.3 22:51:03 10° SSW 22:56:15 68° WNW 23:01:25 10° NNE
Cosmos 1570 Rocket 4.1 22:52:43 10° SSW 22:57:57 76° WNW 23:03:08 10° NNE
Meteor 1-10 Rocket 4.3 22:52:30 10° S 22:58:06 56° E 23:03:39 10° NNE
Cosmos 1633 Rocket 3.0 22:55:13 10° N 22:59:37 88° W 23:04:01 10° S
COSMOS 2455 3.9 22:54:37 10° WSW 23:00:19 43° NW 23:06:05 10° NNE
Meteor 1-11 Rocket 4.0 22:55:54 10° N 23:01:15 43° ENE 23:06:42 10° SE
CZ-4 R/B 4.5 22:57:17 10° SSE 23:01:18 53° ENE 23:05:21 10° N
Cosmos 1151 Rocket 3.5 22:58:22 10° SSW 23:02:38 61° W 23:06:58 10° N
Helios 1B 4.4 22:59:18 16° NNE 23:02:46 72° ESE 23:07:04 10° S
Meteor 2-16 Rocket 4.5 22:56:52 10° N 23:03:00 83° W 23:09:08 10° S
X-37B 1.5 23:01:01 10° SW 23:03:24 32° SSE 23:03:24 32° SSE
Cosmos 2298 Rocket 4.1 22:59:24 10° NNW 23:04:38 54° ENE 23:09:50 10° SE
Cosmos 2322 Rocket 2.8 22:59:57 10° N 23:05:07 34° NE 23:05:58 32° ENE
Cosmos 1980 Rocket 3.1 23:04:08 10° NW 23:09:34 49° WSW 23:14:57 10° S
Landsat 5 3.2 23:14:49 46° NNE 23:15:55 72° ESE 23:19:50 10° S
DMSP B5D2-2 4.4 23:17:37 41° E 23:17:41 41° E 23:22:36 10° SSE
Feng Yun 1-1 Rocket 4.4 23:12:03 10° SSE 23:17:49 57° ENE 23:23:32 10° N
Cosmos 1818 3.4 23:12:49 10° NNW 23:18:20 83° ENE 23:22:57 15° SE
ISS -2.5 23:16:05 10° WNW 23:19:17 39° SW 23:20:29 28° S
Meteor 2-15 Rocket 4.3 23:13:50 10° S 23:19:54 71° E 23:25:59 10° NNE
CZ-4C R/B 3.3 23:13:35 10° NW 23:21:02 74° WSW 23:29:35 10° SSE
SL-16 R/B 2.1 23:18:57 10° NNW 23:24:35 61° ENE 23:27:08 32° SE
Cosmos 2082 Rocket 3.7 23:20:10 10° WSW 23:25:13 32° NW 23:30:16 10° N
Okean O Rocket 1.7 23:20:53 10° S 23:25:21 79° WSW 23:29:50 10° NNW
USA 306 4.2 23:24:52 10° NW 23:27:36 27° N 23:27:36 27° N
Cosmos 1470 Rocket 3.8 23:26:32 10° NNW 23:30:59 70° W 23:35:25 10° S
ARGOS 3.3 23:25:49 10° S 23:31:13 74° WSW 23:36:39 10° NNW
Cosmos 44 Rocket 3.3 23:27:26 10° NW 23:32:20 76° WSW 23:34:46 29° SSE
GEOS 3 Rocket 4.4 23:33:57 35° NNE 23:33:57 35° NNE 23:37:48 10° NNW
Cosmos 2266 Rocket 4.0 23:26:46 10° N 23:33:12 89° E 23:39:37 10° S
Aureole 3 Rocket 3.2 23:32:49 10° S 23:36:58 71° E 23:37:00 71° E
Cosmos 2333 Rocket 4.2 23:35:57 10° N 23:37:11 15° N 23:37:11 15° N
Cosmos 1867 3.4 23:35:13 10° SSW 23:40:37 68° ESE 23:40:50 67° ESE
Cosmos 2150 Rocket 4.0 23:35:49 10° NNW 23:41:00 80° WSW 23:46:15 10° SSE
H-2A R/B 3.7 23:36:56 10° SSW 23:41:35 34° W 23:46:09 10° NNW
USA 267 4.3 23:41:27 25° NNE 23:44:17 36° NNW 23:50:06 10° W
ATLAS CENTAUR R/B 4.1 23:39:18 10° W 23:44:20 20° NW 23:45:46 17° N
USA 32 4.0 23:44:11 10° S 23:49:25 81° W 23:51:15 42° N
Spot 2 4.4 23:44:32 10° SSE 23:49:40 87° ENE 23:54:49 10° NNW
Cosmos 1125 Rocket 3.7 23:47:12 10° NNW 23:52:26 69° WSW 23:56:50 15° S
CZ-2C R/B 3.9 23:49:38 10° N 23:54:23 38° WNW 23:59:06 10° SW
